Location: Poughquag
(41.6090°N, 73.6820°W)
Time: 18:28:21
(UTC-04:00)

JY1SAT - Pass Details

Date: 14 September 2024
Orbit: 527 x 537 km, 97.5° (Epoch: 10 October)

Event Time Altitude Azimuth Distance (km) Brightness Sun altitude
Exits shadow 21:15:57 17° 21° (NNE) 1,390 ? -24.2°
Drops below altitude 10° 21:17:08 10° 10° (N) 1,792 ? -24.4°
Sets 21:19:26 0° 359° (N) 2,691 ? -24.8°
